sat.trackr.live / text

‹ back to catalog

KUIPER-00060

NORAD 64520 · 2025-134W

PAYLOAD ACTIVE UNKNOWN

§ Identity

Operator
Country
US
Launch date
2025-06-23
Launch site
AFETR
Launch vehicle
Mass (kg)
RCS (m²)

External: N2YO · Heavens-Above · Gunter

§ Orbital elements

Epoch: 2026-05-24T23:40:09.583392Z

Period
97.30 min
Inclination
51.9010°
Eccentricity
0.0000632
Mean motion
14.79902511 rev/d
Perigee alt
629.2 km
Apogee alt
630.1 km
Semi-major
7,007.8 km
B*
4.2807e-4
RAAN
243.2529°
Arg perigee
94.5787°
Mean anomaly
265.5248°
Rev number
5,153

§ Raw data

KUIPER-000601 64520U 25134W   26144.98622203  .00003041  00000+0  42807-3 0  99922 64520  51.9010 243.2529 0000632  94.5787 265.5248 14.79902511 51538

JSON: /api/v1/satellites/64520 · /tle

For live sub-satellite position, see the globe view (requires WebGL).

§ Visibility from observer

Set your observer location to see the next 7 days of passes ≥ 10°. The values pass through the URL so the page stays shareable.

No JS? Fill the form by hand. The geolocation button needs JavaScript.